Location: ????????
(55.1591°N, 39.1782°E)
Time: 21:50:31
(UTC+00:00)

Cosmos 2219 Rocket - Pass Details

Date: 14 April 2024
Orbit: 827 x 845 km, 71.0° (Epoch: 23 May)

Event Time Altitude Azimuth Distance (km) Brightness Sun altitude
Exits shadow 00:27:16 22° 237° (WSW) 1,735 3.2 -14.8°
Maximum altitude 00:30:49 59° 310° (NW) 955 2.4 -14.5°
Drops below altitude 10° 00:36:22 10° 30° (NNE) 2,445 5.8 -13.9°
Sets 00:38:51 0° 35° (NE) 3,383 7.0 -13.6°
